EW5401 Weather Reports


Display with metric or nautical units.
time (UTC)temp
F
wind
direction
speed
MPH
gust
MPH
rain 1hr
in
rain 24hr
in
rain mn
in
humidity
%
barometer
mb
20260507230054 54 300 2.0 6.0 0.00 0.06 0.00 44 1007.6
20260507224553 55 10 2.0 6.0 0.00 0.06 0.00 43 1007.5
20260507223104 55 290 2.0 9.0 0.00 0.06 0.00 44 1007.5
20260507221554 56 311 4.0 11.0 0.00 0.06 0.00 43 1007.4
20260507220051 56 265 2.0 13.0 0.00 0.06 0.00 44 1007.6
20260507214551 57 106 2.0 8.0 0.00 0.06 0.00 43 1007.4
20260507213050 55 296 2.0 10.0 0.00 0.06 0.00 48 1007.5
20260507211557 55 263 2.0 12.0 0.00 0.06 0.00 47 1007.4
20260507210106 56 20 5.0 13.0 0.00 0.06 0.00 47 1007.2
20260507204549 57 320 4.0 10.0 0.00 0.06 0.00 45 1007.2
20260507203046 57 219 4.0 9.0 0.00 0.06 0.00 45 1007.2
20260507201545 56 254 1.0 10.0 0.00 0.06 0.00 48 1007.3
20260507200053 57 316 5.0 15.0 0.00 0.06 0.00 43 1007.3
20260507194550 58 28 3.0 11.0 0.00 0.13 0.00 44 1007.5
20260507193042 58 255 3.0 8.0 0.00 0.13 0.00 45 1007.6
20260507191544 56 39 5.0 12.0 0.00 0.13 0.00 45 1007.9
20260507190047 57 327 3.0 10.0 0.00 0.13 0.00 45 1007.9
20260507184544 57 279 5.0 12.0 0.00 0.18 0.00 49 1008.1
20260507183046 55 238 3.0 10.0 0.00 0.18 0.00 47 1008.0
20260507181535 55 326 3.0 11.0 0.00 0.18 0.00 45 1008.3
20260507180036 55 325 3.0 8.0 0.00 0.18 0.00 47 1008.5
20260507174536 57 317 4.0 10.0 0.00 0.22 0.00 45 1008.8
20260507173043 56 272 3.0 11.0 0.00 0.22 0.00 50 1008.7
20260507171529 55 259 3.0 11.0 0.00 0.22 0.00 50 1008.8
20260507170028 53 331 4.0 11.0 0.00 0.22 0.00 51 1008.9
20260507164535 54 313 3.0 9.0 0.00 0.31 0.00 54 1008.9
20260507163027 54 321 3.0 12.0 0.00 0.31 0.00 54 1009.0
20260507161525 55 76 4.0 15.0 0.00 0.31 0.00 45 1009.4
20260507160027 54 306 4.0 17.0 0.00 0.31 0.00 48 1009.7
20260507154522 54 205 3.0 13.0 0.00 0.32 0.00 54 1009.8
20260507153024 53 319 4.0 13.0 0.00 0.32 0.00 51 1010.0
20260507151519 53 296 5.0 12.0 0.00 0.32 0.00 50 1010.0
20260507150017 51 284 6.0 13.0 0.00 0.32 0.00 48 1009.9
20260507144517 51 316 8.0 15.0 0.00 0.32 0.00 49 1010.1
20260507143021 52 296 5.0 12.0 0.00 0.32 0.00 54 1009.9
20260507141518 50 306 6.0 15.0 0.00 0.32 0.00 47 1010.1
20260507140017 50 32 4.0 14.0 0.00 0.32 0.00 49 1010.2
20260507134509 49 280 5.0 13.0 0.00 0.32 0.00 53 1010.0
20260507133007 49 319 5.0 14.0 0.00 0.32 0.00 54 1010.1
20260507131515 48 320 3.0 11.0 0.00 0.32 0.00 62 1010.2
20260507130003 48 32 3.0 12.0 0.00 0.32 0.00 59 1010.0
20260507124508 47 294 6.0 15.0 0.00 0.32 0.00 62 1009.9
20260507123101 47 313 8.0 19.0 0.00 0.32 0.00 60 1010.0
20260507121558 47 330 5.0 14.0 0.00 0.32 0.00 68 1009.9
20260507120056 46 308 2.0 10.0 0.00 0.32 0.00 73 1009.9
20260507114608 45 347 2.0 12.0 0.00 0.32 0.00 75 1009.8
20260507113124 45 340 2.0 13.0 0.00 0.32 0.00 74 1009.7
20260507111557 44 242 3.0 13.0 0.00 0.32 0.00 76 1009.8
20260507110049 44 328 1.0 4.0 0.00 0.32 0.00 76 1009.6
20260507104546 44 271 0.0 9.0 0.00 0.32 0.00 76 1009.3
20260507103050 44 340 2.0 16.0 0.00 0.32 0.00 77 1009.1
20260507101545 44 46 0.0 5.0 0.00 0.32 0.00 81 1008.6
20260507100038 45 285 1.0 6.0 0.00 0.32 0.00 85 1008.5
20260507094536 45 308 2.0 8.0 0.00 0.32 0.00 86 1008.6
20260507093035 46 301 0.0 8.0 0.00 0.32 0.00 87 1008.4
20260507091536 46 293 0.0 3.0 0.00 0.32 0.00 87 1008.4
20260507090029 46 297 0.0 4.0 0.00 0.32 0.00 88 1008.6
20260507084539 46 326 1.0 5.0 0.00 0.32 0.00 88 1008.7
20260507083027 46 178 0.0 6.0 0.00 0.32 0.00 89 1008.9
20260507081535 46 344 1.0 7.0 0.00 0.32 0.00 90 1008.8
20260507080022 46 297 0.0 4.0 0.00 0.32 0.00 91 1008.7
20260507074520 46 320 0.0 0.0 0.00 0.32 0.00 91 1008.8
20260507073019 46 320 0.0 1.0 0.00 0.32 0.00 91 1008.5
20260507071519 46 320 0.0 3.0 0.00 0.32 0.00 90 1008.2
20260507070017 47 320 0.0 3.0 0.00 0.32 0.00 90 1007.8
20260507064515 47 319 0.0 2.0 0.00 0.32 0.00 90 1007.7
20260507063013 47 309 0.0 3.0 0.00 0.32 0.00 90 1007.8
20260507061514 47 313 0.0 4.0 0.00 0.32 0.00 90 1007.8
20260507060012 48 82 0.0 4.0 0.00 0.32 0.00 90 1007.4
20260507054512 48 55 0.0 4.0 0.00 0.32 0.00 90 1007.4
20260507053010 48 355 1.0 4.0 0.00 0.32 0.00 90 1007.5
20260507051507 48 304 3.0 9.0 0.00 0.32 0.00 90 1008.2
20260507050008 48 355 0.0 2.0 0.00 0.32 0.00 91 1008.1
20260507044503 48 45 2.0 3.0 0.00 0.32 0.00 91 1008.2
20260507043001 48 315 0.0 8.0 0.00 0.32 0.00 91 1008.5
20260507041601 48 309 0.0 4.0 0.00 0.32 0.00 91 1008.0
20260507040055 49 314 0.0 0.0 0.00 0.32 0.00 92 1007.8
20260507034555 49 67 0.0 1.0 0.00 0.32 0.32 92 1007.7
20260507033054 49 67 0.0 2.0 0.00 0.32 0.32 91 1008.0
20260507031552 49 314 0.0 2.0 0.00 0.32 0.32 92 1008.1
20260507030051 49 314 1.0 3.0 0.00 0.32 0.32 91 1008.2
20260507024552 49 46 1.0 4.0 0.01 0.32 0.32 92 1008.2
20260507023102 49 42 1.0 3.0 0.01 0.32 0.32 92 1008.1
20260507021545 50 21 0.0 3.0 0.02 0.32 0.32 92 1008.1
20260507020050 50 69 0.0 1.0 0.03 0.32 0.32 92 1008.1
20260507014541 50 69 0.0 0.0 0.04 0.31 0.31 92 1008.1
20260507013040 50 69 0.0 2.0 0.04 0.31 0.31 91 1007.7
20260507011545 50 69 0.0 3.0 0.03 0.30 0.30 91 1007.7
20260507010037 51 28 0.0 2.0 0.02 0.28 0.28 91 1007.8
20260507004535 51 63 0.0 4.0 0.00 0.27 0.27 90 1007.3
20260507003030 52 312 0.0 1.0 0.01 0.27 0.27 90 1007.0
20260507001601 53 49 1.0 4.0 0.01 0.27 0.27 90 1006.5
20260507000032 53 311 1.0 8.0 0.01 0.27 0.27 89 1006.4
20260506234524 54 96 1.0 10.0 0.01 0.27 0.27 90 1005.9
20260506233020 57 303 5.0 16.0 0.00 0.26 0.26 88 1005.2
20260506231518 60 190 0.0 4.0 0.00 0.26 0.26 94 1003.9